Weather History for Sussex, NJ

Change the Weather History Date:

Sunday, May 26, 2013

  Actual Average Record
Temperature  
Mean Temperature 54 °F -  
Max Temperature 66 °F 72 °F 91 °F (1991)
Min Temperature 41 °F 47 °F 35 °F (1968)
Degree Days  
Heating Degree Days 11    
Growing Degree Days 4 (Base 50)    
Moisture  
Dew Point 35 °F    
Average Humidity 53    
Maximum Humidity 86    
Minimum Humidity 31    
Precipitation  
Precipitation 0.00 in - - ()
Sea Level Pressure  
Sea Level Pressure 30.06 in    
Wind  
Wind Speed 8 mph (WNW)    
Max Wind Speed 16 mph    
Max Gust Speed 30 mph    
Visibility 10 miles    
Events      
Averages and records for this station are not official NWS values.
T = Trace of Precipitation, MM = Missing Value Source: NWS Daily Summary

Daily Weather History Graph

Daily Weather History Graph

Search for Another Location

Airport:

Trip Planner

Search our weather history database for the weather conditions in past years. The results will help you decide how hot, cold, wet, or windy it might be!

Date:

Astronomy

May. 26, 2013 Rise Set
Actual Time 5:31 AM EDT 8:20 PM EDT
Civil Twilight 4:58 AM EDT 8:53 PM EDT
Nautical Twilight 4:17 AM EDT 9:34 PM EDT
Astronomical Twilight 3:30 AM EDT 10:21 PM EDT
Moon 10:05 PM EDT (5/26) 6:57 AM EDT (5/26)
Length of Visible Light 15h 54m
Length of Day
14h 49m
Waning Gibbous, 97% of the Moon is Illuminated
May 26
Waning Gibbous
May 31
Last Quarter
Jun 8
New
Jun 16
First Quarter
Jun 23
Full

Hourly Weather History & Observations

Time (EDT) Temp. Windchill Dew Point Humidity Pressure Visibility Wind Dir Wind Speed Gust Speed Precip Events Conditions
12:53 AM 46.0 °F 41.9 °F 36.0 °F 68% 30.02 in 10.0 mi WNW 8.1 mph - N/A   Mostly Cloudy
1:53 AM 44.1 °F 42.5 °F 36.0 °F 73% 30.00 in 10.0 mi Variable 3.5 mph - N/A   Clear
2:53 AM 45.0 °F 40.1 °F 36.0 °F 71% 29.99 in 10.0 mi NW 9.2 mph - N/A   Clear
3:53 AM 46.0 °F 41.9 °F 36.0 °F 68% 29.98 in 10.0 mi West 8.1 mph - N/A   Clear
4:53 AM 46.9 °F - 36.0 °F 66% 30.00 in 10.0 mi WNW 6.9 mph - N/A   Clear
5:53 AM 46.0 °F 43.9 °F 36.0 °F 68% 30.02 in 10.0 mi Variable 4.6 mph - N/A   Clear
6:53 AM 46.9 °F - 37.0 °F 68% 30.03 in 10.0 mi SSW 5.8 mph - N/A   Clear
7:53 AM 50.0 °F - 37.9 °F 63% 30.04 in 10.0 mi West 8.1 mph - N/A   Clear
8:53 AM 53.1 °F - 37.0 °F 55% 30.03 in 10.0 mi West 10.4 mph - N/A   Clear
9:53 AM 55.0 °F - 36.0 °F 49% 30.04 in 10.0 mi WNW 8.1 mph 23.0 mph N/A   Scattered Clouds
10:53 AM 57.0 °F - 37.0 °F 47% 30.04 in 10.0 mi NW 9.2 mph 16.1 mph N/A   Mostly Cloudy
11:53 AM 60.1 °F - 35.1 °F 39% 30.04 in 10.0 mi NNW 12.7 mph 24.2 mph N/A   Scattered Clouds
12:53 PM 62.1 °F - 33.1 °F 34% 30.04 in 10.0 mi NW 12.7 mph 24.2 mph N/A   Clear
1:53 PM 63.0 °F - 33.1 °F 33% 30.04 in 10.0 mi WNW 16.1 mph 24.2 mph N/A   Clear
2:53 PM 64.9 °F - 34.0 °F 32% 30.04 in 10.0 mi NW 9.2 mph 20.7 mph N/A   Clear
3:53 PM 64.0 °F - 34.0 °F 33% 30.06 in 10.0 mi NW 16.1 mph 29.9 mph N/A   Clear
4:53 PM 64.0 °F - 33.1 °F 31% 30.06 in 10.0 mi WNW 10.4 mph 19.6 mph N/A   Clear
5:53 PM 63.0 °F - 32.0 °F 31% 30.08 in 10.0 mi NW 16.1 mph 24.2 mph N/A   Clear
6:53 PM 62.1 °F - 30.9 °F 31% 30.11 in 10.0 mi NNW 9.2 mph 18.4 mph N/A   Clear
7:53 PM 59.0 °F - 32.0 °F 36% 30.13 in 10.0 mi NNW 3.5 mph - N/A   Clear
8:53 PM 52.0 °F - 34.0 °F 50% 30.15 in 10.0 mi Calm Calm - N/A   Clear
9:53 PM 46.9 °F - 37.0 °F 68% 30.19 in 10.0 mi WSW 3.5 mph - N/A   Clear
10:53 PM 46.0 °F - 37.0 °F 71% 30.20 in 10.0 mi Calm Calm - N/A   Clear
11:53 PM 41.0 °F - 37.0 °F 86% 30.22 in 10.0 mi Calm Calm - N/A   Clear